Wind_Gust
20 20 20 20 20 20 20 20 20 20 20 20 21 21 21 22 22 22 22 23 23 24 23 23 23 24 24 24 24 25 21 22 23 22 19 33 19 22 22 16 15 11 11 6 4 4 8 6 5 4 4 5 11 10 11 9 11 9 22 25 23 20 20 16 23 24 11 18 13 9 13 15 18 20 13 6 5 7 6 4 7 10 11 18 21 32 31 30
20 20 21 21 21 21 21 21 21 20 20 20 21 21 21 21 22 22 22 23 23 24 24 23 24 24 24 23 23 22 20 18 24 21 30 30 19 24 22 22 22 14 8 6 6 6 5 6 6 3 6 9 4 11 10 17 14 21 17 21 35 21 26 16 17 11 13 13 9 13 15 13 21 12 11 16 9 8 5 5 4 15 17 20 29 30 32 30
21 21 22 21 22 22 22 22 22 21 21 20 20 21 21 21 21 21 22 22 23 23 24 24 24 24 24 22 21 19 17 23 19 19 20 11 19 22 23 23 21 16 12 8 6 9 10 4 5 6 7 8 8 13 10 19 18 19 14 28 32 12 10 13 9 13 14 10 13 12 15 9 12 12 7 15 21 9 11 12 4 16 20 26 26 28 29 28
21 22 22 22 22 22 22 22 22 22 22 22 21 21 21 22 22 22 21 22 22 23 23 24 23 23 23 23 20 15 14 16 17 14 4 13 24 26 27 19 19 13 8 8 4 5 3 6 4 3 7 10 9 11 16 17 24 15 19 31 23 13 12 10 13 14 12 9 12 14 9 10 10 9 7 5 10 13 9 14 19 17 24 27 29 30 28 28
21 22 22 22 22 22 22 23 22 23 22 22 22 22 22 22 22 23 21 21 22 22 22 23 23 22 23 23 22 11 15 11 17 6 8 20 25 28 28 25 20 10 10 4 5 4 5 5 4 4 7 13 9 8 16 11 18 10 30 19 6 6 15 15 12 14 12 13 11 10 9 21 7 10 9 7 13 20 13 13 10 26 26 30 28 26 26 25
21 22 22 22 22 22 22 22 23 23 23 23 23 23 22 22 23 23 23 22 21 22 22 23 23 23 23 21 16 9 6 22 5 11 10 25 28 28 28 27 18 9 4 6 8 3 4 5 6 8 11 9 10 21 10 19 12 30 22 12 12 9 11 10 19 15 13 20 19 16 14 9 9 15 9 10 15 16 12 13 20 27 31 33 33 30 25 24
22 22 22 22 22 22 22 23 22 23 23 23 23 23 24 24 23 24 24 24 23 23 22 22 23 23 23 17 12 10 12 35 20 14 24 28 32 24 25 22 12 4 6 9 10 14 7 8 8 7 7 10 12 19 13 12 15 20 31 8 12 10 19 9 8 16 20 18 24 21 5 10 4 9 5 6 10 16 15 14 22 26 24 27 31 31 33 28
22 22 23 23 22 23 22 22 23 23 24 24 24 24 24 24 24 24 24 24 24 24 22 22 22 23 22 17 17 16 20 32 36 20 27 33 30 17 19 15 11 6 7 13 11 14 6 10 13 8 13 15 8 14 12 16 18 27 28 12 12 9 11 12 19 17 14 16 14 7 12 21 10 13 8 13 13 13 9 12 17 22 25 24 27 25 23 22
22 23 22 23 23 24 24 22 22 23 24 24 24 24 24 24 24 25 25 24 24 23 22 21 22 22 19 14 20 24 35 36 23 27 31 26 14 17 17 17 11 10 8 11 10 12 10 11 11 14 12 13 17 11 9 16 29 25 15 12 12 17 12 10 14 21 23 24 12 10 17 20 12 6 11 14 19 7 8 13 22 23 24 26 26 28 27 25
22 22 23 23 24 24 23 23 22 22 23 24 24 25 25 25 25 24 25 25 24 24 23 22 21 21 17 14 15 26 15 13 17 16 11 13 18 20 21 11 11 12 10 8 9 10 16 17 16 10 11 13 8 15 5 15 17 4 14 18 18 18 16 13 16 19 21 24 14 17 18 22 14 15 21 9 13 5 14 17 18 22 24 22 22 22 22 26
23 22 23 24 23 23 23 23 23 23 23 24 24 25 26 26 26 26 25 25 24 23 22 21 19 17 18 14 22 35 12 17 8 12 17 21 25 23 19 17 12 17 14 14 15 15 15 14 7 6 12 24 6 10 14 12 4 16 9 10 20 19 19 17 15 17 16 23 22 12 17 15 16 12 20 16 9 12 20 18 18 20 22 21 20 21 17 17
23 23 24 23 23 23 23 23 24 24 25 25 25 26 26 27 27 27 26 24 24 23 21 19 19 14 14 20 28 41 12 15 23 22 22 23 27 26 21 17 15 16 16 17 14 13 17 17 12 13 18 8 24 8 21 10 15 13 12 21 14 15 34 23 26 17 10 21 10 13 13 22 20 14 11 17 8 11 21 19 20 19 19 19 20 20 19 21
23 24 24 23 24 23 23 24 24 25 25 25 26 27 27 28 28 28 27 25 22 22 21 20 16 8 12 28 35 38 27 26 30 28 28 24 23 23 21 19 18 17 16 16 17 13 9 16 14 17 22 15 9 26 11 11 11 8 12 12 12 18 22 20 19 17 14 19 9 14 24 23 21 12 12 14 11 13 14 18 17 16 16 19 21 24 18 15
23 24 24 24 24 24 24 24 25 25 26 26 28 28 29 29 29 29 28 26 25 23 20 19 11 9 14 29 31 21 16 16 20 23 29 27 17 27 20 18 15 16 13 16 19 17 15 12 11 17 16 16 16 9 16 14 6 14 8 10 20 10 26 8 20 15 22 19 10 14 25 19 14 10 12 11 12 21 18 18 17 17 19 20 19 20 23 20
25 25 24 24 24 24 24 25 25 25 26 27 29 29 29 31 30 29 28 24 22 19 19 14 4 7 15 33 19 23 29 28 26 32 32 20 16 21 23 15 15 15 18 17 16 9 13 10 7 13 18 10 15 18 20 11 8 9 13 26 9 20 7 9 13 16 28 20 13 12 25 21 13 14 11 10 9 16 20 17 17 20 21 21 18 19 19 19
25 25 25 24 23 24 24 24 25 25 25 27 29 29 31 32 28 26 25 21 21 19 12 6 7 9 14 34 21 11 17 17 23 20 23 18 18 21 19 13 12 13 11 11 15 17 13 9 11 11 10 9 14 15 9 12 15 12 16 5 17 8 11 11 11 12 20 24 8 25 17 6 14 11 12 6 9 15 17 15 18 20 22 22 19 18 18 18
25 25 25 25 24 24 24 25 25 27 26 25 28 28 30 31 31 28 25 21 15 10 6 10 4 10 13 15 13 21 18 15 14 17 15 16 20 21 18 14 15 11 10 12 11 7 7 10 8 12 11 17 11 13 13 19 16 16 8 16 8 11 8 21 6 10 15 22 21 12 24 10 6 7 11 5 12 18 15 19 19 22 22 22 21 20 22 22
25 26 25 25 25 24 25 25 27 27 27 26 27 26 35 33 33 23 15 10 6 7 8 10 6 10 33 19 21 21 9 13 10 14 16 13 21 19 17 18 10 10 8 13 7 13 11 14 10 13 9 17 16 20 31 35 31 14 8 10 12 7 13 13 21 9 12 19 26 15 12 8 10 7 5 8 12 20 19 25 22 23 22 22 21 22 23 24
26 25 25 24 25 26 26 26 28 27 26 26 25 25 30 29 14 4 8 6 7 5 8 14 15 18 18 7 13 14 14 14 23 20 24 12 13 20 17 13 7 7 9 13 13 15 12 10 6 10 27 26 27 23 24 5 14 12 8 11 7 12 11 17 15 8 15 12 22 21 18 11 11 11 8 4 15 16 16 16 19 21 24 23 24 24 25 26
26 26 26 27 26 26 28 27 28 27 27 19 18 23 17 16 12 8 4 2 7 11 15 14 22 21 24 32 29 21 19 20 25 15 13 9 17 16 14 15 10 8 11 19 9 17 13 19 24 31 19 17 15 15 11 11 10 7 9 8 13 11 9 7 7 9 7 10 13 16 10 12 13 14 13 12 9 13 19 18 23 19 21 23 24 27 29 28
28 27 27 27 27 28 27 28 27 25 26 17 11 12 12 13 14 16 17 19 16 17 20 23 22 24 28 24 26 20 26 21 13 24 20 15 11 21 18 17 16 16 16 7 15 8 17 20 27 13 12 13 13 11 10 11 16 14 7 7 12 11 15 9 9 7 10 15 5 7 10 13 15 16 16 7 17 16 20 21 25 21 21 23 27 28 26 18
28 28 28 28 29 28 28 27 26 23 25 7 4 8 9 8 9 9 10 26 14 17 19 24 21 27 27 30 33 16 16 27 33 30 24 13 19 26 13 22 22 24 10 11 10 14 25 36 18 10 8 8 8 13 12 15 15 15 16 9 7 13 8 12 11 7 6 8 14 5 10 14 18 17 14 15 17 21 26 30 29 28 22 20 22 23 18 14
28 29 29 29 29 29 28 26 24 24 10 7 8 6 8 7 7 7 11 20 34 23 24 24 25 29 32 34 29 8 16 21 28 28 19 6 19 21 22 22 21 18 16 17 25 20 20 23 14 13 9 10 9 11 16 16 15 13 13 13 16 7 13 17 11 8 12 15 7 8 10 12 15 7 17 8 9 14 19 26 28 28 30 26 27 28 27 21
29 29 29 30 30 31 29 26 22 9 3 7 9 8 9 3 4 8 8 15 25 25 16 24 24 25 30 31 18 23 21 23 18 27 17 14 16 14 21 20 17 21 27 24 20 19 16 7 14 12 12 13 17 9 16 20 23 16 13 11 10 10 7 9 12 13 16 9 4 6 9 13 10 11 10 4 9 15 11 6 6 11 18 25 20 17 24 30
30 29 30 31 32 32 27 23 9 4 11 13 6 5 7 4 5 7 8 16 15 24 8 13 13 17 26 7 9 12 18 25 24 25 11 7 14 21 16 22 21 26 23 18 15 16 16 12 20 18 18 16 16 18 21 20 18 20 15 12 8 5 11 15 7 5 8 14 12 11 14 20 11 14 16 8 11 12 8 17 19 20 16 14 19 25 20 18
31 31 30 32 32 29 24 16 4 10 14 15 8 4 8 4 5 7 7 12 19 16 9 15 9 12 12 10 15 18 9 26 16 24 18 17 13 13 17 22 27 26 21 17 21 26 16 9 23 24 20 18 18 20 12 16 21 17 20 14 11 11 10 13 6 4 7 14 13 15 22 24 11 14 10 11 14 15 8 15 20 17 15 16 20 20 22 23
31 30 33 33 30 26 16 12 7 9 11 8 3 10 10 9 6 9 14 12 10 9 13 10 7 20 12 8 18 15 10 22 19 20 20 20 14 12 14 15 17 12 21 19 19 32 22 20 20 21 22 24 24 26 22 18 17 29 8 16 15 15 15 16 5 5 10 7 14 9 27 26 24 18 6 8 16 14 12 14 15 16 14 17 19 20 20 20
33 33 34 32 30 21 12 15 11 10 12 12 9 9 9 9 3 8 8 14 19 8 8 16 10 12 9 7 19 26 15 8 12 18 22 15 10 15 13 14 19 18 21 23 32 10 19 21 20 24 24 27 31 22 9 14 25 15 10 14 15 15 17 11 6 7 7 2 19 14 7 24 24 13 7 14 14 9 16 21 21 20 19 18 19 21 16 12
34 35 35 31 30 26 12 8 5 12 8 6 9 9 8 6 7 7 7 11 11 16 14 13 14 10 17 8 22 19 23 9 7 6 14 15 19 9 12 12 14 15 15 21 19 11 24 20 23 23 25 30 19 15 15 14 18 10 12 7 10 7 8 8 11 9 9 11 20 20 12 26 17 9 16 7 9 19 21 22 24 26 27 24 24 18 15 14
35 37 35 32 24 8 3 2 10 11 11 10 11 7 5 6 7 7 8 12 13 18 10 12 14 13 14 11 14 17 19 19 11 9 15 19 13 13 17 8 8 16 23 18 13 14 16 15 11 27 30 22 17 18 20 14 9 5 12 13 15 8 8 5 9 11 8 18 22 16 15 18 23 16 24 26 23 25 20 13 17 15 10 14 15 15 16 17
37 37 33 27 16 10 4 8 12 12 12 8 5 4 3 6 7 6 9 13 10 14 9 9 11 9 13 8 8 13 19 19 14 12 10 12 10 15 9 10 11 8 12 15 21 20 12 19 23 24 17 23 16 21 19 16 12 9 20 22 10 13 3 6 10 5 21 24 14 14 16 17 30 15 14 22 19 27 28 26 28 25 27 27 19 18 18 19
37 38 34 27 15 7 9 9 8 3 5 4 3 6 5 8 4 9 15 7 22 5 11 13 10 12 12 11 10 12 20 11 15 13 12 19 13 22 21 15 24 23 21 22 26 15 17 22 17 10 17 21 23 17 18 19 17 16 9 14 20 18 19 23 15 25 23 23 13 12 11 11 33 20 27 28 26 19 27 33 35 34 32 22 18 21 21 21
35 34 34 20 9 8 11 15 8 6 3 3 4 4 6 7 15 9 16 8 15 6 14 8 18 17 16 13 11 11 10 15 12 15 13 11 14 12 9 16 4 14 19 16 14 17 14 9 13 19 12 26 22 28 24 25 27 22 20 22 25 25 24 23 13 14 10 13 11 11 8 23 10 16 21 32 28 28 30 27 30 34 31 26 24 23 23 23
33 31 20 10 9 15 11 10 12 7 4 3 6 4 4 10 17 10 12 10 16 7 12 15 20 19 12 15 7 13 14 16 10 15 15 11 14 16 17 14 13 12 5 14 26 21 15 19 24 25 28 22 30 27 22 18 21 26 10 15 17 17 25 21 17 24 19 14 15 5 12 19 11 17 17 30 30 27 31 25 14 18 19 18 20 21 22 23
34 22 10 11 8 13 15 10 8 7 5 6 5 7 10 13 9 11 13 9 11 10 12 10 19 13 7 9 8 11 9 13 17 10 15 14 18 19 20 20 19 8 7 25 18 19 18 20 12 19 5 22 24 20 16 13 15 19 15 12 13 28 14 10 17 14 13 13 12 10 21 14 21 7 10 19 23 16 12 14 20 20 21 23 23 25 24 22
21 18 8 8 4 6 12 12 6 7 7 3 8 11 12 10 14 6 12 7 14 13 20 21 8 6 8 7 9 8 15 9 15 12 10 14 14 22 12 13 21 18 13 23 16 17 14 19 6 24 12 25 21 22 23 20 34 24 19 30 20 10 9 7 4 3 7 9 24 8 10 10 15 8 13 7 12 11 14 15 18 19 21 22 22 22 22 22
19 18 11 5 5 5 10 9 11 10 6 5 9 13 10 15 12 8 10 10 15 14 11 15 16 13 11 12 9 10 11 11 13 18 12 12 16 20 18 11 11 14 15 10 11 11 19 14 10 20 24 21 24 22 17 22 16 23 32 15 8 8 12 17 14 8 8 16 21 6 13 6 10 20 10 11 17 12 16 18 19 19 22 23 22 22 23 24
20 14 11 7 9 10 10 11 13 6 7 7 16 18 12 17 8 15 7 16 17 8 9 6 7 5 7 10 10 11 9 7 9 19 10 18 21 16 16 21 16 19 15 15 7 12 8 14 14 12 20 18 18 22 16 15 17 19 18 12 27 23 22 11 12 8 13 17 12 6 3 8 12 9 7 8 17 14 15 17 20 20 22 20 20 21 20 23
9 6 11 6 6 9 10 13 9 7 4 13 17 22 16 17 12 10 9 13 14 13 7 3 5 4 2 5 7 8 8 8 7 7 13 20 16 18 25 16 16 18 15 12 16 12 6 10 12 10 23 17 14 23 28 24 17 5 16 26 15 14 12 12 26 10 17 9 8 12 5 17 15 10 18 20 19 21 21 21 24 28 26 25 26 27 28 27
14 11 7 6 8 11 15 12 6 5 10 13 13 18 13 21 20 15 13 14 11 6 6 4 3 6 5 7 7 8 8 10 5 10 9 15 19 7 25 18 14 19 18 13 14 4 10 4 12 13 13 16 21 27 26 24 26 19 21 23 20 20 7 13 8 13 15 15 14 12 8 12 11 10 10 18 22 23 30 29 25 25 23 24 26 29 29 28
10 6 12 7 7 9 11 5 8 12 13 12 13 23 19 21 15 13 14 15 14 9 11 7 5 5 3 8 7 4 7 7 7 7 9 12 20 11 17 22 19 11 16 14 14 12 8 6 8 10 14 24 18 13 10 18 19 18 18 15 17 19 13 16 17 8 10 14 16 14 14 16 17 6 9 14 20 26 24 30 27 21 22 24 25 24 28 27
11 14 8 4 7 5 6 8 12 7 15 14 21 23 30 17 14 12 13 10 13 13 7 6 7 7 7 10 9 7 7 8 8 4 5 11 14 11 9 17 18 8 19 25 19 11 17 5 7 14 18 17 7 11 11 17 16 14 18 12 16 20 14 15 15 12 6 10 10 11 12 13 10 8 8 12 15 22 23 21 22 21 22 21 23 22 22 23
14 11 14 15 10 5 3 13 12 11 12 20 18 20 20 17 9 10 11 8 7 4 5 6 7 5 9 11 8 9 7 9 6 6 5 3 9 22 13 16 12 16 12 13 12 20 12 15 9 7 8 4 4 3 13 15 15 8 14 7 16 25 19 15 14 14 18 5 6 5 14 17 11 8 12 11 16 14 21 23 22 21 20 22 21 21 23 21
13 13 13 9 5 8 5 14 19 16 23 20 16 22 15 12 7 9 8 11 9 7 5 7 6 10 9 9 11 9 7 10 6 5 9 4 11 11 23 10 19 22 17 12 20 12 23 11 13 10 20 14 7 9 11 5 15 19 15 11 12 13 14 9 9 5 10 10 11 17 17 12 11 13 9 12 15 14 14 12 22 24 19 22 20 19 20 21
15 10 10 13 7 5 6 10 15 18 20 21 27 25 23 13 10 12 12 10 8 5 7 7 10 6 11 10 10 13 14 13 9 7 4 6 14 16 17 17 21 17 18 11 9 13 12 7 11 18 23 27 28 29 28 24 23 13 8 11 8 11 12 12 17 7 9 4 7 11 12 16 14 12 9 13 21 13 10 14 13 22 28 26 22 23 22 24
11 19 15 11 12 9 5 4 7 11 19 20 24 18 13 25 18 9 7 12 7 7 9 10 10 11 11 11 8 6 8 9 14 10 12 13 14 17 10 16 20 19 18 16 12 6 10 7 7 10 17 17 11 11 7 13 10 14 6 10 8 5 10 10 13 11 13 9 7 11 11 5 5 9 6 9 23 22 19 18 20 20 17 22 24 25 25 24
9 12 16 21 18 6 9 8 8 13 18 18 18 19 19 22 22 18 6 10 6 11 10 9 9 15 13 13 8 8 7 13 7 8 8 10 9 13 18 15 16 18 19 13 14 6 8 11 6 10 10 17 12 6 9 11 12 9 10 8 6 10 8 9 12 17 11 14 6 9 7 11 9 5 4 9 10 13 13 16 18 17 20 23 22 21 18 20
15 7 6 5 12 18 24 17 18 19 21 16 13 12 19 23 22 23 13 7 7 7 12 6 7 12 13 12 13 8 11 8 5 7 11 6 18 18 15 16 17 16 18 20 9 6 9 11 7 5 6 6 4 6 10 13 13 15 12 8 8 8 9 9 8 6 9 11 16 8 9 9 8 8 6 13 23 25 25 22 17 17 18 18 21 24 23 23
7 9 9 9 16 11 13 20 22 19 21 17 15 12 21 20 23 20 15 16 10 8 5 12 15 18 14 12 10 6 6 11 11 10 8 13 13 14 13 11 6 14 16 9 11 7 10 9 7 4 4 5 7 9 6 14 8 12 12 11 11 11 9 8 6 9 12 5 11 15 8 6 6 6 9 12 15 19 16 17 20 19 19 20 22 23 24 23
15 13 12 9 11 18 16 15 15 16 16 17 18 14 23 20 21 25 22 14 21 10 3 10 17 18 16 12 6 4 6 4 6 8 8 6 18 8 8 5 8 13 14 15 10 4 10 12 4 6 5 5 7 6 8 12 13 10 5 7 7 9 8 4 4 4 8 12 9 8 13 8 5 6 8 12 19 17 21 23 23 21 18 21 23 23 22 22
12 8 12 18 22 12 13 10 14 16 14 12 16 17 20 17 20 20 24 16 9 16 18 19 17 20 12 8 8 10 12 10 10 15 16 10 11 5 10 9 10 11 14 21 14 9 8 8 6 9 8 6 7 8 6 10 8 11 8 8 11 9 7 5 10 10 8 8 14 9 6 8 5 9 9 14 21 26 25 22 21 19 21 22 22 22 23 22
11 9 10 11 13 11 16 13 14 12 10 13 17 21 22 20 21 21 25 7 6 11 14 18 16 12 13 11 13 9 10 9 15 21 19 17 16 16 11 17 11 5 7 16 4 11 7 6 7 7 11 4 8 4 11 10 10 6 7 8 11 5 3 4 4 4 9 18 19 15 15 13 15 15 16 13 18 19 22 23 20 18 20 23 25 25 24 22
Wind_Speed
15 15 16 16 16 16 16 16 15 14 14 14 15 15 15 16 17 17 18 18 18 19 19 18 19 19 19 19 19 18 16 9 12 10 11 15 11 15 15 12 8 4 3 1 2 3 4 4 1 2 1 2 2 1 3 1 1 2 5 7 11 7 10 7 10 10 4 7 6 2 7 7 11 5 4 3 3 4 1 2 3 5 5 3 5 16 17 16
16 15 15 16 16 17 17 17 17 16 15 15 15 15 16 16 16 16 17 17 18 19 19 19 19 19 19 19 19 18 12 9 13 11 15 17 16 16 17 18 18 11 4 3 1 2 2 2 3 1 2 1 1 3 4 3 4 6 3 5 16 9 6 10 8 7 5 6 5 7 7 9 12 6 2 3 6 4 1 2 3 7 8 11 12 14 16 16
15 15 16 16 17 16 16 17 17 17 17 16 16 16 16 16 16 16 16 17 17 17 18 18 19 18 19 18 18 15 10 12 10 11 10 3 9 14 12 16 17 13 6 3 2 5 4 0 1 2 0 2 2 5 4 4 6 7 3 11 13 2 4 8 5 8 6 5 8 8 5 6 6 1 0 3 8 6 5 4 2 6 9 12 13 14 14 13
15 16 16 16 16 16 16 16 17 17 17 17 17 17 17 17 17 17 16 15 16 17 17 18 18 18 18 19 17 10 7 8 7 6 1 8 15 17 20 14 12 10 4 3 3 2 1 2 2 1 0 2 2 3 5 6 6 2 5 11 4 5 5 5 4 8 7 4 2 4 3 3 5 4 1 3 6 8 4 8 13 11 13 13 14 15 14 13
16 16 16 16 16 16 16 17 17 17 18 17 18 17 17 17 18 18 17 16 16 16 17 17 17 17 18 18 18 7 9 5 4 3 4 13 19 20 18 21 3 3 6 3 1 1 1 1 1 1 1 2 2 1 5 4 4 1 16 6 0 2 4 6 8 8 5 4 4 5 5 9 1 1 3 4 6 10 5 8 5 17 18 20 17 14 12 14
17 17 17 17 17 16 17 17 16 16 17 18 18 18 18 18 18 18 19 18 17 17 16 17 17 17 17 17 10 3 1 5 1 4 6 17 20 21 19 21 9 1 1 3 2 0 1 0 3 1 1 2 5 10 1 9 4 11 6 6 5 3 5 4 5 5 7 5 5 4 5 2 4 5 2 4 8 8 6 2 12 17 21 22 20 18 15 15
18 18 18 17 17 17 17 17 17 17 18 17 18 18 19 19 18 18 18 19 18 18 18 17 15 16 17 14 6 6 5 12 11 7 17 20 22 18 18 16 9 1 1 1 2 2 3 3 4 3 2 2 7 5 5 3 7 9 8 0 4 5 8 4 5 9 7 9 10 7 1 4 1 5 1 2 6 11 8 4 12 14 15 17 17 19 22 19
17 18 18 18 18 18 18 16 17 17 18 18 18 18 18 18 18 19 19 19 19 19 18 17 15 15 15 8 8 6 10 14 20 12 19 23 20 11 14 7 8 4 0 4 3 3 2 4 5 3 4 7 3 6 4 9 7 11 10 5 3 3 5 8 8 5 5 7 7 4 5 13 5 3 5 7 9 9 5 7 11 15 16 15 18 16 14 13
16 17 17 18 18 19 19 18 17 17 18 17 18 19 19 18 19 19 19 18 19 18 17 16 15 13 11 5 7 11 15 18 13 17 22 18 9 9 8 7 8 7 3 2 4 5 5 4 4 6 5 6 9 3 3 4 11 6 8 4 5 7 3 5 6 9 8 4 4 5 11 12 4 3 6 8 13 3 3 7 13 16 16 17 17 17 16 14
17 17 18 18 17 17 17 18 18 17 18 18 18 19 19 20 19 19 19 19 18 18 18 16 15 13 6 4 6 13 4 9 9 9 5 7 10 10 8 3 7 8 5 4 3 5 8 4 10 5 0 4 2 5 1 5 5 1 5 12 10 9 7 5 6 5 6 4 5 7 10 11 2 6 8 3 8 4 8 8 9 15 16 15 13 11 9 13
17 17 17 18 17 16 17 17 18 18 18 19 19 19 20 20 20 20 19 19 18 17 16 16 13 9 2 2 6 14 3 7 3 5 9 9 12 11 10 8 6 7 5 7 5 6 8 7 3 1 2 5 2 4 7 3 1 7 3 3 10 12 11 6 6 7 2 5 5 6 11 10 3 5 10 6 4 7 13 9 11 12 13 12 13 12 11 11
17 18 17 17 18 18 17 17 17 18 19 19 19 20 20 21 21 21 21 19 19 18 16 15 14 3 3 5 10 15 0 2 10 9 11 12 10 12 12 9 6 6 5 7 9 7 5 6 4 3 4 4 7 2 6 2 4 5 6 9 5 5 11 13 13 7 4 6 3 3 3 10 6 5 6 10 3 6 11 12 13 11 10 12 13 11 11 12
17 17 18 18 17 17 18 19 19 19 19 20 20 21 21 22 22 22 20 20 17 17 15 14 10 2 1 12 15 18 13 15 19 18 17 13 13 12 9 8 8 7 8 8 8 7 5 4 5 7 8 0 1 6 2 4 3 2 3 3 5 6 8 9 7 10 7 5 4 5 9 12 11 8 8 8 7 5 8 10 11 9 10 11 12 12 10 9
17 17 17 18 18 18 18 19 19 20 19 19 21 22 21 21 23 22 21 20 19 16 14 13 5 1 3 11 6 2 5 7 9 12 15 9 9 12 9 8 7 7 7 9 11 10 10 7 6 9 4 5 3 5 9 3 2 2 3 4 6 3 9 4 6 6 11 6 6 7 10 10 7 4 8 7 8 14 11 12 11 10 11 11 11 12 13 13
19 19 19 18 18 18 19 19 19 20 20 20 20 22 23 23 21 22 20 18 17 13 12 9 1 0 5 11 7 10 18 11 11 17 13 11 9 11 10 6 8 9 10 10 6 5 7 7 4 5 6 4 5 6 6 2 1 1 2 9 2 10 2 4 7 10 12 3 9 7 10 10 8 7 7 6 5 9 13 11 11 12 13 13 10 12 12 12
19 20 19 19 19 19 19 19 20 20 20 21 21 21 24 26 22 20 21 16 16 12 5 3 1 3 6 13 6 6 4 3 7 12 12 9 9 11 11 6 3 4 4 4 7 8 7 5 4 5 3 3 7 5 2 5 3 2 7 0 6 4 5 1 6 7 11 5 5 15 4 1 8 7 8 3 6 7 10 10 12 14 15 14 11 9 10 8
20 19 19 19 19 19 19 20 20 21 21 20 23 23 23 24 24 22 20 16 7 2 3 2 2 4 4 5 5 8 3 3 6 3 2 8 10 11 7 4 4 4 5 7 6 4 3 4 2 2 3 4 4 6 5 8 5 5 1 5 2 6 2 7 2 4 8 12 7 7 9 4 3 4 8 3 8 5 8 11 13 14 13 13 12 12 12 12
20 20 20 19 19 20 20 20 21 21 21 20 21 21 20 24 22 15 4 2 2 2 3 3 1 3 11 6 8 8 1 6 4 6 11 5 12 11 8 5 3 5 2 2 2 4 3 3 3 5 4 7 8 10 13 15 13 5 1 4 5 1 6 8 7 4 7 8 11 5 8 5 6 4 3 4 6 10 11 17 14 14 13 12 13 13 14 13
20 20 20 19 20 21 21 21 22 22 20 19 19 20 20 13 2 1 4 3 3 1 1 3 6 7 6 2 7 7 5 6 10 9 9 4 5 8 5 4 2 3 2 5 3 9 2 1 2 3 13 12 13 13 11 1 9 6 5 5 3 6 4 5 6 4 10 5 8 7 6 7 8 7 5 3 5 6 8 11 12 13 13 14 14 14 13 15
21 21 21 21 20 21 22 21 22 21 20 12 8 7 5 5 4 1 1 1 3 4 6 2 11 11 14 19 15 10 6 8 8 5 6 3 4 4 5 4 2 2 5 8 4 9 5 8 11 15 10 9 8 10 7 7 1 5 4 2 3 3 4 3 3 4 4 4 7 6 5 7 9 9 8 8 4 5 7 11 14 11 12 13 12 14 17 16
22 21 21 21 21 21 21 22 21 19 18 8 4 3 3 5 6 5 7 10 10 11 12 14 14 15 13 11 12 11 9 6 5 10 8 3 5 7 4 7 4 6 7 3 6 2 9 10 14 8 7 7 9 6 5 5 9 3 2 3 6 4 4 3 4 4 3 4 1 4 7 8 10 10 11 5 5 7 12 13 17 14 12 13 15 16 16 9
22 22 21 22 20 21 21 20 20 18 16 1 1 1 3 4 2 3 1 8 7 12 13 17 13 14 13 16 20 7 7 10 16 15 9 9 4 8 3 8 8 11 6 3 1 2 11 17 9 4 4 4 4 8 7 9 10 6 4 2 1 4 3 7 6 4 1 4 6 1 6 7 10 11 9 7 9 6 12 17 17 18 14 11 13 15 10 7
23 23 23 23 23 23 22 21 19 17 2 3 3 3 2 2 1 1 2 7 15 8 14 14 12 15 16 14 12 5 10 11 9 10 3 1 6 10 7 8 9 6 8 9 12 9 9 10 7 9 4 6 5 7 9 9 6 6 4 4 4 3 3 3 5 2 1 3 2 5 5 6 6 5 3 3 5 1 5 6 12 18 18 16 17 16 15 13
22 22 23 23 24 25 22 21 16 4 1 3 6 4 4 2 1 3 4 4 10 5 7 8 10 9 11 10 3 11 12 6 6 15 4 5 4 6 5 10 7 7 11 13 12 9 7 1 9 8 7 7 9 6 10 10 9 4 5 4 4 4 2 2 2 4 1 0 2 4 1 5 4 5 2 1 1 2 4 4 1 5 11 16 13 8 9 15
23 23 23 23 23 25 22 18 2 2 3 6 3 3 2 3 2 3 3 4 4 7 3 4 4 4 8 2 4 5 7 7 13 8 1 3 7 7 6 4 5 11 11 9 5 7 9 6 10 10 11 9 8 10 12 11 8 7 5 6 5 3 5 6 5 3 2 4 2 5 1 6 5 5 8 2 1 3 4 8 10 13 11 7 10 15 12 8
24 23 23 23 25 23 20 6 1 1 6 4 4 1 4 3 2 3 1 2 7 4 1 1 3 2 1 1 3 3 2 6 9 11 7 4 1 1 4 5 5 12 11 9 8 4 5 4 9 15 12 10 9 8 6 9 8 7 7 8 5 5 3 4 5 0 1 4 3 1 9 5 5 6 4 4 6 9 4 9 10 8 8 8 11 11 11 11
24 24 24 24 24 21 7 1 1 2 3 3 2 2 4 4 3 2 3 2 3 1 2 1 1 2 2 3 6 4 2 6 6 10 10 10 5 3 3 5 3 1 4 3 1 9 7 12 8 11 14 13 11 11 8 11 8 7 4 11 8 5 5 4 2 3 2 2 4 1 4 4 6 9 2 5 8 8 7 8 6 7 8 10 9 9 8 7
25 26 25 25 24 17 5 4 4 3 4 5 4 3 4 3 1 2 1 3 2 2 1 2 3 2 3 1 10 7 7 4 1 2 14 8 4 1 4 2 6 7 8 9 15 1 12 10 10 12 12 11 13 7 5 9 7 2 5 10 10 8 9 4 3 1 1 1 8 3 0 1 4 5 3 2 5 5 8 8 10 10 12 12 7 6 7 7
26 25 26 25 23 21 7 4 2 5 4 3 2 3 3 2 2 2 1 2 0 1 4 3 1 2 7 4 9 8 6 0 2 2 7 9 10 2 4 6 3 5 9 13 9 1 6 11 11 10 9 12 5 6 7 9 7 3 6 5 4 4 4 5 4 4 3 2 9 7 3 3 6 4 2 1 4 7 9 11 14 14 16 13 7 8 9 9
27 27 28 25 17 5 1 0 5 5 4 4 3 2 2 1 1 1 1 4 3 3 3 2 2 3 6 5 6 8 6 3 4 3 7 4 7 2 3 2 0 5 9 9 5 5 3 9 7 8 11 6 6 5 6 7 4 3 6 4 1 1 1 2 3 3 1 6 10 6 5 4 4 6 7 9 7 10 11 6 8 8 5 4 7 10 10 9
28 29 26 22 6 3 1 3 6 7 6 3 1 1 1 1 1 1 3 3 1 4 2 3 4 3 6 3 3 4 9 5 2 5 3 4 5 7 2 2 2 2 3 6 8 11 6 3 8 5 6 5 6 4 5 5 5 4 4 5 1 5 1 1 1 1 4 7 3 5 6 7 6 5 3 10 5 8 15 15 16 14 14 11 10 11 11 11
29 30 28 15 7 3 4 2 2 1 2 1 1 2 2 1 1 2 5 1 6 1 3 3 5 4 7 7 3 2 4 4 5 5 5 7 7 9 7 7 6 7 8 10 10 7 9 7 3 5 8 11 8 8 5 6 4 5 5 7 9 3 3 4 3 8 8 5 2 4 6 1 7 8 10 11 17 11 12 14 18 18 15 12 12 14 12 12
28 27 27 10 4 4 6 7 1 1 2 1 1 1 1 1 5 4 5 2 3 1 2 2 9 9 10 7 3 5 5 2 7 6 6 1 7 7 5 8 2 3 5 7 7 7 5 2 4 6 7 10 11 12 8 9 10 9 8 9 10 6 7 7 2 1 1 4 6 4 2 5 3 7 13 13 16 19 15 16 10 13 14 17 15 14 12 13
27 25 10 5 4 6 5 3 4 1 0 0 2 0 2 3 5 5 3 4 8 2 7 5 8 10 8 5 3 6 4 5 3 5 7 3 6 7 7 8 9 4 1 7 8 9 5 6 9 10 7 10 12 11 12 8 11 10 2 6 6 4 3 5 3 7 7 5 4 1 4 5 5 7 5 17 17 16 7 2 7 11 12 11 12 13 13 12
26 14 6 5 3 6 9 6 3 3 2 2 2 2 2 4 3 2 3 2 2 3 5 5 9 7 3 1 2 4 3 3 7 4 7 4 5 4 7 8 9 4 1 10 4 3 9 3 6 9 2 12 11 8 7 6 7 7 4 6 5 11 6 2 5 6 4 3 4 2 5 6 7 3 6 3 3 5 8 6 10 11 13 15 14 14 14 13
15 8 3 2 1 3 6 6 4 4 4 1 1 3 5 3 4 1 2 1 5 5 10 11 3 2 4 2 2 4 6 1 8 5 4 5 3 4 2 2 5 9 3 6 3 4 3 4 2 12 8 11 12 10 7 9 8 7 8 11 7 5 4 2 1 0 1 3 8 1 2 3 7 4 4 3 7 5 9 8 9 11 14 15 13 13 13 13
8 9 4 3 2 2 4 4 5 5 2 1 2 5 4 4 6 2 3 4 7 8 6 4 3 3 4 2 2 3 4 5 7 6 1 5 1 4 4 3 4 6 9 3 3 2 9 5 4 10 16 7 11 13 8 11 6 7 11 7 1 1 3 3 3 1 1 5 5 2 5 2 4 5 5 4 6 4 7 8 10 11 13 14 12 12 12 13
8 6 4 3 5 2 5 6 7 3 2 2 5 11 3 4 3 8 2 7 8 3 4 1 1 3 2 3 4 4 2 2 5 5 2 3 3 4 5 3 5 7 9 7 1 3 2 2 5 7 13 8 4 13 7 7 7 10 8 5 8 5 6 2 2 2 0 2 2 0 0 3 6 4 1 2 8 7 8 9 12 14 13 12 13 14 12 12
4 2 4 2 3 4 5 7 4 3 1 4 5 6 1 4 3 5 5 5 5 5 3 1 1 1 0 1 1 1 4 1 3 1 1 2 2 4 7 5 5 10 6 8 3 3 1 2 1 2 12 8 4 8 11 11 5 1 9 9 4 5 2 3 7 3 5 3 2 4 2 6 5 3 8 10 13 12 12 12 14 17 16 14 15 16 17 15
5 3 2 2 5 3 6 5 3 1 3 4 6 4 1 8 7 9 7 8 5 2 1 1 0 2 1 2 2 1 2 2 1 3 1 2 4 2 7 9 3 7 7 8 5 2 3 1 3 3 7 8 7 7 12 11 12 7 8 9 4 2 2 5 1 3 2 3 3 3 1 3 4 5 5 8 10 14 18 16 13 13 13 14 17 17 17 17
3 2 3 3 5 2 5 2 3 4 5 4 7 8 7 3 6 7 7 9 6 4 5 2 2 1 1 3 3 1 1 2 1 2 3 2 6 1 5 9 8 3 5 4 4 3 2 1 1 1 5 10 8 5 6 10 11 8 6 6 9 8 3 7 6 1 2 1 3 4 4 6 8 2 5 6 8 12 14 16 15 13 14 15 15 15 18 16
4 4 2 3 4 2 1 3 3 2 3 6 8 6 10 9 4 7 7 4 5 4 2 2 3 3 2 4 3 2 1 2 4 2 1 5 5 4 3 11 11 4 7 6 7 3 2 1 2 2 6 8 3 6 7 11 10 7 9 5 8 8 5 5 4 4 2 2 4 4 3 5 3 4 4 5 6 3 2 6 9 10 13 14 14 14 14 14
4 4 5 8 6 1 1 4 4 3 4 7 10 11 10 5 3 3 5 3 3 1 1 3 3 2 3 3 0 2 2 2 2 1 1 1 4 12 3 12 9 10 3 1 2 3 5 2 3 3 2 2 2 2 9 11 10 5 6 3 8 11 9 6 5 6 8 2 1 0 1 3 5 4 7 1 5 7 5 4 7 9 9 12 13 14 15 14
4 4 5 5 2 2 2 5 6 8 7 8 8 12 9 4 1 3 3 6 3 3 2 3 3 5 3 3 4 2 2 2 3 2 3 1 1 7 9 7 11 8 7 5 7 4 3 3 2 2 4 3 4 3 4 0 4 5 4 3 7 7 10 4 4 1 2 4 6 7 5 2 4 6 3 6 8 9 8 7 10 12 10 11 12 11 11 13
4 3 4 5 3 2 1 2 4 6 9 12 12 13 11 3 4 6 5 5 4 2 3 2 5 1 1 3 5 5 6 6 1 3 1 2 2 3 9 12 13 9 10 6 1 6 4 3 4 2 7 8 8 10 11 10 11 2 2 6 4 7 8 5 7 0 3 1 4 2 3 7 7 6 4 4 8 7 6 7 6 10 14 13 12 12 12 13
3 5 3 4 3 4 0 0 1 4 9 10 9 6 6 11 7 3 3 6 2 2 4 4 4 4 4 4 3 2 2 3 5 3 4 3 2 3 3 3 14 7 13 13 6 3 1 1 3 5 6 8 4 4 2 4 3 4 3 7 4 3 4 4 6 5 5 3 2 5 3 1 2 5 2 6 9 11 12 12 12 12 11 7 8 11 12 12
2 2 4 7 6 2 4 3 2 5 7 9 6 6 10 12 9 7 4 1 0 2 4 2 3 6 5 6 4 3 0 4 3 3 2 3 3 4 7 6 8 12 14 6 10 1 3 4 4 5 6 9 7 4 6 8 6 5 7 4 1 7 5 6 5 6 5 7 2 3 5 4 5 3 3 5 4 4 6 9 11 10 12 12 11 10 11 11
3 1 1 1 4 6 9 5 9 10 12 9 4 4 8 12 12 9 5 3 3 1 1 1 3 6 8 6 6 3 5 3 1 1 5 3 5 5 4 5 7 9 11 3 3 2 2 3 2 3 2 4 3 4 7 7 8 8 7 6 5 6 6 5 4 3 6 4 7 3 6 5 3 4 3 4 3 12 16 14 11 11 11 10 11 12 12 13
0 2 3 3 4 5 6 12 14 12 12 8 4 7 12 12 13 8 3 7 3 4 1 4 7 12 9 8 3 2 3 3 3 2 2 5 5 5 4 3 4 6 6 3 4 1 0 3 2 2 2 2 2 4 4 10 4 7 8 7 7 8 6 5 3 3 6 1 4 3 5 3 2 3 2 1 1 2 4 7 11 12 13 11 12 11 12 13
4 4 4 1 5 9 9 7 6 9 8 9 7 7 9 11 13 14 9 3 6 2 0 5 10 8 8 4 1 0 1 2 3 4 2 3 8 3 3 2 1 3 5 3 1 2 2 4 0 1 2 2 3 2 5 9 9 5 2 4 5 6 5 2 2 3 4 4 1 4 4 0 2 1 2 4 7 6 6 11 11 11 11 12 12 12 11 11
3 3 4 7 9 5 6 5 7 8 6 5 5 8 10 11 12 12 13 8 5 6 8 10 11 11 3 2 2 5 6 4 6 8 10 5 5 1 3 2 3 1 4 2 1 3 1 3 2 2 3 1 3 4 5 7 5 7 4 4 5 6 4 2 2 4 4 3 1 4 3 3 2 2 4 6 8 11 11 7 9 9 11 13 13 13 13 13
3 4 5 4 4 5 7 7 7 5 3 5 7 12 7 12 13 12 10 3 4 6 7 11 10 6 6 6 7 4 4 6 11 13 9 7 6 7 3 3 1 1 3 1 1 3 2 1 1 2 4 1 3 2 8 7 6 4 1 4 7 3 1 1 1 2 2 7 7 4 8 4 4 7 8 7 8 5 8 14 10 9 12 15 16 16 16 14
Wind_Direction
341 341 342 342 341 336 336 335 332 331 332 332 328 329 327 328 326 327 327 325 324 326 322 324 329 327 329 327 327 327 330 322 314 307 302 257 236 244 252 252 257 196 252 347 302 342 336 359 342 327 143 117 245 165 233 193 183 118 206 206 231 210 198 182 189 188 170 195 238 197 213 207 252 276 261 336 281 219 100 168 324 35 43 82 96 125 132 137
339 343 342 340 339 338 335 334 333 331 327 325 325 324 325 325 324 326 328 327 325 324 325 324 323 327 328 329 330 331 329 316 300 289 255 263 281 260 254 247 246 232 302 304 195 255 285 311 17 355 129 181 224 209 158 250 165 195 201 186 229 186 223 151 195 191 137 217 221 221 209 198 232 229 295 304 292 280 127 1 31 79 72 89 105 122 133 142
347 348 347 346 341 340 337 336 334 333 331 327 326 325 322 319 322 320 322 323 323 325 324 323 323 325 327 329 332 334 331 308 303 278 268 71 8 0 329 251 236 229 198 198 198 196 188 183 29 53 120 194 239 205 192 237 168 224 148 219 226 161 210 203 143 205 203 171 214 231 244 198 253 259 288 247 260 280 208 143 45 129 138 131 130 136 141 147
349 348 343 343 342 338 339 337 334 332 332 330 325 324 321 320 318 320 318 318 319 322 323 323 323 325 324 331 339 333 334 294 276 228 175 30 14 0 360 336 224 212 179 221 237 181 200 34 32 87 340 181 281 209 202 224 171 205 212 226 205 184 178 231 197 203 220 182 215 218 276 306 264 220 216 291 329 291 251 200 163 171 149 142 144 144 149 155
345 343 341 339 339 338 335 334 334 333 331 329 327 324 321 319 319 316 317 314 315 316 321 324 325 325 325 332 336 350 320 322 268 121 97 21 7 0 0 3 238 189 182 176 127 296 98 93 79 23 144 232 259 252 228 223 214 135 225 219 277 147 201 232 212 220 214 204 211 265 265 248 347 273 252 232 244 267 225 213 224 154 152 148 152 157 159 164
341 340 338 336 336 334 332 333 330 330 328 328 326 324 321 322 320 318 316 313 311 314 317 320 324 326 326 333 318 318 86 244 43 277 331 359 1 356 0 353 352 148 167 225 170 106 62 60 122 150 207 163 212 208 206 205 188 240 243 231 212 191 189 204 210 223 210 232 222 237 233 296 262 263 256 223 229 253 236 161 159 160 161 159 153 154 164 169
338 336 335 334 331 331 330 329 328 326 328 324 323 323 323 321 320 318 315 316 312 314 312 316 322 328 328 326 295 271 252 264 322 252 339 335 341 350 353 349 358 55 343 304 243 186 175 193 152 204 142 216 264 228 261 226 227 247 243 42 225 204 235 255 211 207 207 210 232 228 334 263 193 243 222 191 252 251 281 192 165 151 145 143 151 167 168 173
337 334 333 331 328 328 327 325 324 325 324 323 320 321 318 317 317 317 317 312 313 309 312 311 318 325 334 329 325 256 239 247 248 285 313 315 325 346 351 343 13 353 302 231 208 210 144 176 180 156 221 182 217 187 222 253 247 234 245 243 275 198 234 242 255 255 238 240 242 277 264 250 205 228 323 291 278 280 351 126 139 143 149 157 157 165 164 157
334 331 331 328 330 328 325 325 324 323 323 322 319 317 315 315 313 312 310 311 310 308 309 310 310 318 337 328 288 283 245 247 277 295 291 300 330 336 4 350 354 356 309 267 226 215 164 223 189 196 208 213 240 258 274 195 261 238 245 256 243 254 236 228 242 249 240 246 209 244 251 260 211 283 277 250 270 304 138 115 146 143 151 162 167 164 163 159
334 333 330 330 331 325 326 323 321 321 319 319 319 317 316 315 312 310 308 306 304 305 305 306 305 311 344 325 295 271 290 236 255 255 307 346 330 333 335 340 352 335 332 307 271 200 195 199 190 210 273 291 255 239 262 218 243 224 197 226 240 246 248 250 228 243 253 231 215 217 253 262 176 179 268 280 252 114 115 131 149 151 158 164 162 153 141 145
336 332 332 331 330 327 326 323 321 319 319 318 316 315 313 312 311 308 306 305 301 300 300 299 303 310 3 347 277 262 269 284 307 334 328 329 324 316 308 320 332 316 310 295 277 216 218 219 197 139 188 225 22 256 223 220 306 301 273 274 242 237 239 246 251 248 225 270 216 194 249 259 213 184 233 236 258 154 132 150 162 162 159 154 151 146 149 157
337 334 332 331 330 328 327 322 320 317 318 318 314 313 311 309 307 306 304 304 302 297 296 297 293 287 249 248 249 235 106 31 319 308 307 302 294 285 290 292 288 272 289 287 285 284 268 234 216 244 212 147 234 351 287 232 254 267 277 280 266 251 242 224 234 242 183 251 239 149 281 270 223 219 219 229 149 158 153 157 167 168 151 140 145 143 157 167
337 334 332 329 327 327 324 323 321 319 318 313 312 310 308 305 304 303 303 298 294 291 290 290 295 120 305 286 243 250 274 286 286 289 288 278 282 280 282 283 269 260 252 260 266 269 277 248 214 240 246 233 225 168 254 335 266 247 262 207 285 270 257 232 221 225 216 233 186 125 254 251 253 228 236 236 140 145 158 163 165 152 146 141 145 157 155 158
332 332 332 330 330 326 324 320 319 319 315 314 314 311 308 304 301 301 299 296 292 289 286 290 285 191 210 253 277 302 268 245 262 271 257 281 290 288 293 269 262 251 235 239 251 257 259 257 221 227 269 224 243 324 337 15 330 206 247 159 218 214 246 193 198 198 222 189 191 160 242 258 265 270 249 241 152 155 171 175 161 154 148 147 153 156 167 178
332 330 331 329 328 327 323 321 319 318 317 315 314 309 304 301 297 297 296 293 288 284 277 276 172 99 267 270 293 266 248 245 256 256 260 262 260 284 269 257 237 231 232 231 242 238 231 241 200 203 234 224 261 300 305 340 4 252 162 226 197 202 329 211 201 191 207 203 172 158 242 244 253 254 251 237 161 177 167 171 162 154 154 156 156 162 170 180
330 329 328 327 327 326 324 323 322 320 317 319 317 309 303 298 297 292 290 284 282 269 263 260 215 176 277 288 268 315 304 209 250 241 247 218 231 238 251 248 279 284 277 257 220 239 246 231 209 183 227 176 194 187 284 346 263 231 208 316 213 173 247 321 230 193 193 203 195 191 222 262 271 241 259 229 151 202 159 164 161 159 160 157 158 162 168 164
331 329 328 326 325 325 325 325 322 319 319 321 320 308 302 297 294 292 290 279 264 245 163 183 175 159 247 216 314 306 274 232 247 281 230 199 208 218 240 259 252 247 229 246 241 250 239 179 197 209 202 208 151 141 176 244 252 251 154 196 211 185 153 225 309 228 190 189 227 210 208 223 248 241 220 201 167 165 145 158 158 162 162 164 160 168 174 183
332 328 327 328 327 327 327 325 322 320 321 322 320 308 304 297 300 305 311 212 165 184 202 207 247 261 262 245 270 251 36 309 309 299 291 241 197 215 205 210 212 226 277 317 226 170 187 204 185 207 160 200 174 179 189 212 199 165 142 152 250 283 199 202 188 251 162 209 212 182 200 222 248 279 274 226 187 161 157 162 162 166 165 162 172 176 184 188
329 328 327 327 328 329 327 327 323 320 320 322 314 312 300 300 348 35 72 104 91 47 166 222 168 167 228 192 234 284 291 292 299 283 282 282 203 201 189 205 236 169 186 163 259 170 175 190 156 183 203 192 203 193 194 132 146 175 154 175 164 201 240 208 216 249 176 197 219 193 181 208 240 259 279 265 200 174 161 164 164 166 167 171 177 185 188 196
329 328 327 327 328 325 326 324 324 322 322 325 332 331 344 16 351 353 12 86 205 214 257 234 197 241 293 289 281 276 293 293 294 255 229 235 105 158 186 165 211 215 182 190 157 192 128 192 201 208 202 196 193 200 189 256 102 140 170 146 201 180 266 267 265 248 170 184 217 205 172 192 217 227 230 227 142 110 145 159 168 167 171 179 185 192 199 200
328 328 328 328 329 327 326 325 327 320 323 325 333 30 21 335 325 317 324 275 247 240 237 246 223 223 236 272 281 291 327 306 209 283 264 284 266 139 195 154 181 183 199 156 156 232 158 208 223 203 193 193 192 173 169 215 253 191 135 175 232 190 224 243 228 253 221 176 297 193 173 206 213 221 229 218 145 170 163 165 173 178 180 185 191 200 205 190
329 327 329 328 327 326 326 327 327 316 323 9 55 25 275 251 246 320 300 290 242 224 235 239 238 249 247 249 256 277 275 280 292 272 274 175 178 172 204 173 180 190 137 193 327 200 197 216 200 176 175 165 170 173 179 200 221 238 193 187 274 275 220 278 273 271 269 151 253 198 174 216 225 231 238 192 190 193 182 171 177 176 183 194 205 207 187 153
330 329 330 330 330 328 329 326 324 320 351 14 345 287 252 238 358 74 238 264 279 227 235 237 242 242 250 252 259 203 234 231 257 277 173 158 170 196 156 187 188 159 154 186 192 187 213 229 174 178 163 167 188 171 177 200 215 210 203 193 204 237 143 280 283 303 212 147 211 191 192 256 249 249 255 249 212 255 212 212 178 173 179 193 202 196 188 185
331 332 331 330 330 328 325 330 322 357 35 301 277 236 254 288 44 31 258 274 297 295 216 228 216 233 239 239 241 192 218 229 200 265 232 185 166 190 172 190 174 176 197 192 204 208 203 73 148 164 187 174 190 178 177 190 214 197 188 176 189 237 234 162 248 308 233 253 124 82 35 317 272 252 268 310 332 147 196 202 211 239 206 198 199 198 196 188
332 331 328 331 327 325 327 325 359 303 313 309 260 238 242 275 131 74 319 293 282 276 201 277 187 237 239 203 140 166 200 239 218 230 300 158 176 169 218 165 169 209 200 179 199 236 239 264 158 170 190 195 188 192 195 178 208 213 217 176 187 182 221 278 300 351 12 299 275 163 298 256 276 257 231 261 57 190 200 191 205 196 196 185 188 200 197 192
330 328 328 330 325 327 326 314 231 313 333 292 251 307 331 332 198 172 168 311 295 282 244 300 108 283 109 244 149 208 175 247 214 234 231 221 315 216 164 203 191 207 189 171 196 225 216 238 191 182 187 197 204 209 192 171 195 181 233 167 192 202 198 240 269 157 332 202 276 152 191 265 315 275 201 184 187 207 203 212 209 191 193 196 203 198 192 181
330 326 329 327 324 327 325 277 10 358 346 298 225 305 312 324 139 100 49 276 309 272 246 102 197 225 118 219 150 147 74 279 181 194 194 229 231 168 194 200 167 246 156 155 168 227 172 215 207 189 186 193 199 205 198 176 157 219 186 164 189 205 218 222 200 161 223 253 282 174 157 187 276 272 248 185 189 202 215 226 214 204 203 208 204 195 184 159
326 325 326 325 323 323 256 280 297 259 218 241 282 304 320 314 106 32 87 321 292 226 271 293 253 279 273 187 163 176 211 17 355 209 184 157 187 289 155 214 182 177 172 175 207 92 167 198 201 195 191 195 208 187 143 160 170 207 159 154 183 194 219 192 190 181 230 346 280 329 71 175 250 263 14 159 179 239 235 223 218 211 211 212 190 157 153 139
325 324 324 322 321 314 289 189 201 243 230 230 260 322 329 35 85 96 119 263 213 262 62 154 136 244 306 264 196 214 265 288 273 58 165 150 182 168 146 243 231 184 185 201 193 252 179 199 198 191 185 207 173 155 164 160 162 208 138 145 147 182 206 175 203 209 253 209 249 243 167 205 278 267 124 222 255 224 223 216 219 211 208 202 157 142 138 130
325 324 322 321 322 320 330 38 208 238 251 263 287 318 338 66 37 232 325 258 36 271 167 284 311 285 273 286 222 226 250 265 234 10 161 154 188 195 261 106 95 194 190 197 223 227 196 184 174 190 203 186 152 180 156 169 184 180 121 153 172 110 190 169 148 152 97 231 237 228 183 164 273 252 187 169 213 203 213 232 240 232 224 117 136 149 147 143
325 322 319 319 295 297 161 278 252 238 249 270 268 33 74 31 157 119 243 262 109 259 328 244 249 180 271 268 304 207 221 248 275 254 212 175 134 178 233 256 159 251 160 173 211 244 274 190 185 202 138 144 151 181 196 163 188 136 164 163 123 300 19 141 237 88 214 255 266 232 186 171 218 288 254 216 253 218 190 201 208 209 205 170 151 150 152 152
324 321 316 315 266 192 189 221 242 151 194 187 105 59 69 338 29 188 246 122 286 131 274 284 227 241 266 284 264 214 191 178 223 208 226 180 159 176 194 195 165 145 182 182 195 220 248 236 210 155 166 159 166 172 204 184 197 187 143 141 166 245 137 255 129 221 220 209 244 209 143 20 250 239 238 208 219 231 221 209 197 200 193 155 153 152 157 153
324 316 314 305 276 170 233 243 195 65 51 158 75 59 62 281 269 229 265 8 258 79 293 173 280 284 291 295 242 220 237 255 163 200 226 186 141 204 203 200 231 139 177 185 155 182 268 254 207 200 160 187 166 176 169 190 203 189 186 173 173 167 187 212 227 48 314 277 254 243 155 241 241 279 238 229 216 214 213 214 208 200 170 159 153 152 152 152
321 318 308 272 231 211 214 216 228 129 163 217 82 336 180 245 257 166 241 215 251 175 281 289 299 282 261 207 235 182 145 217 167 185 184 196 155 180 207 217 234 266 100 146 176 177 154 209 238 186 210 170 183 188 178 179 179 200 147 138 180 171 164 198 188 198 207 203 243 231 118 232 141 234 226 212 213 211 207 56 76 101 124 127 132 134 141 147
322 309 282 284 253 231 221 208 200 164 135 62 63 190 270 255 260 267 260 274 269 278 267 291 298 324 89 243 269 251 244 147 215 185 175 190 190 182 196 212 212 205 195 146 237 131 216 245 253 202 247 162 187 177 161 140 169 192 175 88 121 216 132 147 197 145 181 199 284 180 189 190 180 247 300 294 4 84 91 95 94 107 124 135 142 148 154 157
327 318 299 268 259 260 193 198 166 144 128 145 327 246 224 233 274 117 275 308 281 310 312 314 295 357 27 293 245 217 182 105 184 215 191 184 186 192 208 212 194 199 199 172 181 168 135 222 267 175 233 174 180 164 185 155 175 187 140 204 206 155 165 63 43 178 104 100 235 163 319 289 304 315 340 51 103 110 106 119 123 129 137 142 147 150 155 156
332 330 1 313 274 218 168 166 150 137 146 158 253 265 227 259 241 263 276 275 295 316 298 317 350 28 355 331 23 67 353 331 163 167 297 178 214 203 189 233 185 180 221 137 181 183 153 241 290 165 201 236 177 170 179 184 142 130 198 213 165 92 109 160 218 349 66 159 248 79 199 247 98 249 343 68 105 129 128 129 138 141 144 148 149 150 154 158
319 307 271 271 249 183 146 145 125 135 108 229 234 263 160 253 213 227 267 299 301 242 284 320 247 80 354 325 52 27 324 332 149 149 239 177 262 199 164 191 215 217 210 217 99 238 131 201 243 199 190 205 193 163 187 198 165 174 189 199 160 205 229 310 98 254 132 189 260 304 142 255 184 233 144 180 158 162 148 141 141 152 156 146 142 145 149 154
286 311 6 274 317 143 140 130 108 112 198 266 269 303 224 244 258 245 223 246 256 284 281 337 241 259 205 323 342 332 290 15 3 197 110 209 204 193 172 170 214 225 208 161 202 262 347 171 275 203 177 182 144 164 190 197 193 90 143 185 183 102 146 125 199 175 123 237 96 276 68 209 214 217 208 189 183 167 153 158 172 169 164 154 154 156 158 165
339 17 327 279 344 113 133 124 94 192 255 275 294 243 311 295 277 262 261 255 276 245 285 305 332 307 278 267 281 203 302 84 270 288 136 193 196 272 168 170 228 214 185 174 205 219 294 172 177 238 188 133 192 189 197 179 173 188 177 180 152 229 209 117 61 142 201 177 179 175 266 284 268 210 187 218 183 174 169 178 175 170 163 161 160 158 161 168
311 102 274 288 45 30 111 142 242 242 257 251 254 270 285 257 307 292 291 278 255 247 255 312 317 308 341 327 318 222 87 257 244 243 183 218 185 196 213 171 212 227 158 182 213 221 263 344 209 305 122 193 203 192 166 167 174 183 155 181 170 175 160 163 239 2 99 106 232 129 233 273 267 198 215 203 212 188 189 172 171 163 158 160 160 160 162 168
335 27 284 290 334 271 209 296 252 200 272 292 313 317 302 306 289 294 314 298 242 255 207 259 274 248 241 251 248 321 250 253 220 223 264 167 230 193 230 185 197 192 157 204 197 197 157 164 81 287 201 188 188 182 159 156 154 168 173 208 177 177 109 115 150 235 6 232 130 170 143 266 246 263 261 230 194 203 181 162 152 153 156 155 155 156 160 162
1 278 275 300 314 102 303 235 249 287 285 285 293 287 282 292 240 296 305 296 329 33 324 237 257 295 231 238 112 237 241 265 244 227 217 214 213 212 243 190 174 210 173 203 129 240 163 262 284 284 260 284 346 56 136 158 140 134 197 135 151 187 182 167 169 183 165 185 125 67 194 253 280 260 279 222 126 128 138 138 137 136 139 147 149 151 151 153
310 299 313 299 349 94 351 359 326 326 306 306 318 292 288 246 256 297 282 300 316 320 325 303 273 218 305 167 262 270 308 31 280 241 309 231 268 230 204 178 178 204 190 207 179 183 164 272 135 294 100 83 57 65 91 91 169 173 177 199 180 163 178 187 103 72 153 224 169 124 205 263 273 302 318 136 128 131 132 133 140 139 147 150 149 145 148 149
284 252 243 290 351 42 144 353 297 302 318 311 321 318 335 332 218 230 273 302 311 322 319 270 260 324 248 261 273 253 271 214 285 272 245 247 250 241 193 201 182 191 210 209 212 157 164 190 117 152 157 153 169 173 183 177 189 204 157 151 176 140 160 130 212 49 162 267 119 139 238 248 276 327 44 110 122 100 104 125 136 149 154 155 147 146 148 151
353 347 313 316 347 18 230 202 217 305 308 320 323 304 323 332 339 285 251 313 295 317 254 273 280 244 258 277 251 228 266 187 173 264 338 327 309 286 50 228 186 177 211 213 226 97 270 114 125 149 165 179 201 208 247 116 80 115 166 141 169 99 118 108 113 122 198 204 181 234 177 182 316 333 86 156 149 146 142 143 146 150 152 141 140 146 150 149
271 41 324 339 323 174 334 302 309 337 309 313 308 319 333 337 317 317 149 332 19 5 314 285 309 356 339 350 10 323 191 296 228 250 297 284 251 263 265 239 187 193 217 197 232 105 259 278 248 148 186 191 179 172 171 140 143 153 133 145 127 120 136 120 131 201 174 103 274 263 211 157 225 255 251 184 154 112 136 143 142 149 156 155 148 138 133 137
27 352 331 77 296 318 334 337 342 319 306 309 274 292 327 329 341 348 320 189 280 261 122 236 253 349 340 359 339 318 329 302 132 331 308 237 296 318 46 128 166 207 212 232 101 138 197 253 266 146 231 230 251 170 150 131 145 154 154 151 122 139 118 141 215 199 135 176 205 238 176 188 209 225 259 258 207 175 165 163 153 141 130 127 135 143 146 144
61 289 265 351 325 298 282 280 299 298 303 314 301 332 338 341 335 341 320 308 332 319 299 319 329 335 331 333 20 297 303 23 318 209 203 315 5 343 29 104 150 181 214 223 252 160 82 263 224 211 136 337 3 124 172 127 130 136 153 176 153 132 168 152 201 187 167 181 211 190 160 184 199 214 227 252 97 64 107 111 122 131 139 138 139 145 149 151
17 339 332 204 232 287 284 290 291 305 312 331 342 338 333 333 333 333 338 326 321 326 286 317 323 315 323 331 349 172 249 223 216 284 298 5 334 8 54 66 286 278 195 215 3 316 130 274 287 228 75 337 328 44 112 134 134 140 142 135 139 123 99 131 115 80 73 49 13 112 96 349 271 212 123 105 90 87 106 133 141 139 136 141 144 147 148 152
311 269 288 305 313 293 300 299 318 315 304 324 342 336 331 335 330 330 308 289 245 302 333 337 329 327 340 320 261 244 249 253 270 230 263 283 278 14 55 289 39 301 173 336 39 328 46 267 74 62 80 327 343 38 79 76 83 119 120 130 125 127 126 198 124 205 131 182 151 104 89 254 250 134 103 118 127 136 135 135 142 147 148 145 149 151 155 160
299 281 283 288 284 301 313 312 309 312 326 342 333 325 325 319 318 328 320 278 310 305 320 329 334 336 308 323 311 264 286 289 282 281 271 264 250 260 231 262 336 224 341 124 77 282 238 153 67 80 80 287 296 50 101 93 75 88 203 217 172 126 139 133 23 81 197 150 111 130 222 211 159 138 143 152 153 160 164 160 156 158 161 160 160 162 163 165